Weather History for KL35 - August, 2013

Change the Weather History Date:

Friday, August 16, 2013

  Actual Average (KBUO) Record (KBUO)
Temperature  
Mean Temperature 63 °F -  
Max Temperature 78 °F 92 °F 98 °F (2001)
Min Temperature 48 °F 61 °F 55 °F (1999)
Degree Days  
Heating Degree Days 2    
Growing Degree Days 13 (Base 50)    
Moisture  
Dew Point 42 °F    
Average Humidity 46    
Maximum Humidity 71    
Minimum Humidity 28    
Precipitation  
Precipitation 0.00 in - - ()
Sea Level Pressure  
Sea Level Pressure 30.33 in    
Wind  
Wind Speed 2 mph (West)    
Max Wind Speed 12 mph    
Max Gust Speed 21 mph    
Visibility 10 miles    
Events      
Averages and records for this station are not official NWS values.
T = Trace of Precipitation, MM = Missing Value Source: NWS Daily Summary

Daily Weather History Graph

Daily Weather History Graph

Search for Another Location

Airport or City:

Trip Planner

Search our weather history database for the weather conditions in past years. The results will help you decide how hot, cold, wet, or windy it might be!

Date:

Astronomy

Aug. 16, 2013 Rise Set
Actual Time 6:09 AM PDT 7:33 PM PDT
Civil Twilight 5:43 AM PDT 7:59 PM PDT
Nautical Twilight 5:11 AM PDT 8:31 PM PDT
Astronomical Twilight 4:38 AM PDT 9:03 PM PDT
Moon 3:51 PM PDT (8/16) 1:21 AM PDT (8/16)
Length of Visible Light 14h 16m
Length of Day
13h 23m
Waxing Gibbous, 76% of the Moon is Illuminated
Aug 16
Waxing Gibbous
Aug 20
Full
Aug 28
Last Quarter
Sep 5
New
Sep 12
First Quarter

Hourly Weather History & Observations

Time (PDT) Temp. Dew Point Humidity Pressure Visibility Wind Dir Wind Speed Gust Speed Precip Events Conditions
12:15 AM 53.6 °F 37.4 °F 54% 30.33 in 10.0 mi Calm Calm - N/A   Clear
12:35 AM 53.6 °F 37.4 °F 54% 30.34 in 10.0 mi Calm Calm - N/A   Clear
12:55 AM 53.6 °F 39.2 °F 58% 30.33 in 10.0 mi Calm Calm - N/A   Clear
1:15 AM 53.6 °F 39.2 °F 58% 30.33 in 10.0 mi Calm Calm - N/A   Clear
1:35 AM 51.8 °F 39.2 °F 62% 30.33 in 10.0 mi Calm Calm - N/A   Clear
1:55 AM 51.8 °F 39.2 °F 62% 30.32 in 10.0 mi Calm Calm - N/A   Clear
2:15 AM 51.8 °F 39.2 °F 62% 30.32 in 10.0 mi Calm Calm - N/A   Clear
2:35 AM 51.8 °F 39.2 °F 62% 30.31 in 10.0 mi Calm Calm - N/A   Clear
2:55 AM 51.8 °F 39.2 °F 62% 30.31 in 10.0 mi Calm Calm - N/A   Clear
3:15 AM 50.0 °F 39.2 °F 66% 30.31 in 10.0 mi Calm Calm - N/A   Clear
3:35 AM 50.0 °F 39.2 °F 66% 30.31 in 10.0 mi Calm Calm - N/A   Clear
3:55 AM 50.0 °F 39.2 °F 66% 30.31 in 10.0 mi Calm Calm - N/A   Clear
4:15 AM 50.0 °F 39.2 °F 66% 30.31 in 10.0 mi Calm Calm - N/A   Clear
4:35 AM 50.0 °F 39.2 °F 66% 30.31 in 10.0 mi Calm Calm - N/A   Clear
4:55 AM 50.0 °F 41.0 °F 71% 30.31 in 10.0 mi Calm Calm - N/A   Clear
5:15 AM 50.0 °F 39.2 °F 66% 30.31 in 10.0 mi Calm Calm - N/A   Clear
5:35 AM 50.0 °F 39.2 °F 66% 30.31 in 10.0 mi Calm Calm - N/A   Clear
5:55 AM 50.0 °F 39.2 °F 66% 30.32 in 10.0 mi Calm Calm - N/A   Clear
6:15 AM 48.2 °F 37.4 °F 66% 30.32 in 10.0 mi Calm Calm - N/A   Clear
6:35 AM 48.2 °F 37.4 °F 66% 30.33 in 10.0 mi Calm Calm - N/A   Clear
6:55 AM 50.0 °F 39.2 °F 66% 30.33 in 10.0 mi Calm Calm - N/A   Clear
7:15 AM 53.6 °F 42.8 °F 67% 30.33 in 10.0 mi West 3.5 mph - N/A   Clear
7:35 AM 55.4 °F 44.6 °F 67% 30.34 in 10.0 mi West 3.5 mph - N/A   Clear
7:55 AM 59.0 °F 46.4 °F 63% 30.34 in 10.0 mi West 3.5 mph - N/A   Clear
8:15 AM 62.6 °F 44.6 °F 52% 30.34 in 10.0 mi Calm Calm - N/A   Clear
8:35 AM 64.4 °F 46.4 °F 52% 30.34 in 10.0 mi West 3.5 mph - N/A   Clear
8:55 AM 69.8 °F 44.6 °F 40% 30.33 in 10.0 mi West 4.6 mph - N/A   Clear
9:15 AM 73.4 °F 42.8 °F 33% 30.33 in 10.0 mi West 3.5 mph - N/A   Clear
9:35 AM 73.4 °F 41.0 °F 31% 30.33 in 10.0 mi West 5.8 mph - N/A   Clear
9:55 AM 73.4 °F 41.0 °F 31% 30.33 in 10.0 mi West 5.8 mph - N/A   Clear
10:15 AM 75.2 °F 42.8 °F 31% 30.33 in 10.0 mi West 8.1 mph - N/A   Clear
10:35 AM 77.0 °F 42.8 °F 29% 30.34 in 10.0 mi West 9.2 mph - N/A   Clear
10:55 AM 77.0 °F 42.8 °F 29% 30.34 in 10.0 mi NW 6.9 mph - N/A   Scattered Clouds
11:15 AM 77.0 °F 42.8 °F 29% 30.34 in 10.0 mi NNE 5.8 mph - N/A   Scattered Clouds
11:35 AM 78.8 °F 44.6 °F 30% 30.34 in 10.0 mi West 6.9 mph - N/A   Scattered Clouds
11:55 AM 78.8 °F 42.8 °F 28% 30.34 in 10.0 mi WNW 9.2 mph 16.1 mph N/A   Mostly Cloudy
12:15 PM 78.8 °F 44.6 °F 30% 30.34 in 10.0 mi NW 5.8 mph 16.1 mph N/A   Scattered Clouds
12:35 PM 78.8 °F 42.8 °F 28% 30.34 in 10.0 mi WNW 5.8 mph 20.7 mph N/A   Scattered Clouds
12:55 PM 78.8 °F 42.8 °F 28% 30.34 in 10.0 mi North 3.5 mph - N/A   Mostly Cloudy
1:15 PM 77.0 °F 42.8 °F 29% 30.33 in 10.0 mi NW 4.6 mph - N/A   Overcast
1:35 PM 77.0 °F 42.8 °F 29% 30.33 in 10.0 mi SW 8.1 mph - N/A   Overcast
1:55 PM 77.0 °F 44.6 °F 32% 30.33 in 10.0 mi South 3.5 mph - N/A   Overcast
2:15 PM 77.0 °F 42.8 °F 29% 30.33 in 10.0 mi NNE 4.6 mph - N/A   Mostly Cloudy
2:35 PM 78.8 °F 42.8 °F 28% 30.32 in 10.0 mi North 3.5 mph - N/A   Mostly Cloudy
2:55 PM 78.8 °F 44.6 °F 30% 30.32 in 10.0 mi West 3.5 mph - N/A   Mostly Cloudy
3:15 PM 77.0 °F 44.6 °F 32% 30.31 in 10.0 mi WSW 4.6 mph - N/A   Mostly Cloudy
3:35 PM 77.0 °F 44.6 °F 32% 30.31 in 10.0 mi West 8.1 mph - N/A   Mostly Cloudy
3:55 PM 78.8 °F 44.6 °F 30% 30.31 in 10.0 mi WSW 10.4 mph - N/A   Mostly Cloudy
4:15 PM 78.8 °F 44.6 °F 30% 30.31 in 10.0 mi West 11.5 mph - N/A   Scattered Clouds
4:35 PM 78.8 °F 42.8 °F 28% 30.31 in 10.0 mi West 9.2 mph - N/A   Clear
4:55 PM 77.0 °F 44.6 °F 32% 30.30 in 10.0 mi WSW 9.2 mph - N/A   Scattered Clouds
5:15 PM 77.0 °F 44.6 °F 32% 30.30 in 10.0 mi WSW 9.2 mph - N/A   Scattered Clouds
5:35 PM 77.0 °F 44.6 °F 32% 30.31 in 10.0 mi West 10.4 mph - N/A   Clear
5:55 PM 75.2 °F 44.6 °F 34% 30.31 in 10.0 mi SW 8.1 mph 16.1 mph N/A   Clear
6:15 PM 73.4 °F 44.6 °F 36% 30.31 in 10.0 mi WSW 9.2 mph - N/A   Clear
6:35 PM 73.4 °F 44.6 °F 36% 30.31 in 10.0 mi WSW 5.8 mph - N/A   Clear
6:55 PM 71.6 °F 46.4 °F 41% 30.31 in 10.0 mi West 11.5 mph - N/A   Clear
7:15 PM 69.8 °F 46.4 °F 43% 30.31 in 10.0 mi WSW 5.8 mph - N/A   Clear
7:35 PM 69.8 °F 46.4 °F 43% 30.32 in 10.0 mi WSW 6.9 mph - N/A   Clear
7:55 PM 68.0 °F 44.6 °F 43% 30.32 in 10.0 mi WSW 4.6 mph - N/A   Clear
8:15 PM 68.0 °F 44.6 °F 43% 30.33 in 10.0 mi WSW 4.6 mph - N/A   Clear
8:35 PM 68.0 °F 44.6 °F 43% 30.33 in 10.0 mi Calm Calm - N/A   Clear
8:55 PM 66.2 °F 42.8 °F 43% 30.34 in 10.0 mi Calm Calm - N/A   Clear
9:15 PM 64.4 °F 42.8 °F 45% 30.34 in 10.0 mi Calm Calm - N/A   Clear
9:35 PM 62.6 °F 42.8 °F 48% 30.35 in 10.0 mi Calm Calm - N/A   Clear
9:55 PM 60.8 °F 42.8 °F 52% 30.35 in 10.0 mi Calm Calm - N/A   Clear
10:15 PM 60.8 °F 42.8 °F 52% 30.35 in 10.0 mi Calm Calm - N/A   Clear
10:35 PM 59.0 °F 42.8 °F 55% 30.35 in 10.0 mi Calm Calm - N/A   Clear
10:55 PM 59.0 °F 42.8 °F 55% 30.35 in 10.0 mi Calm Calm - N/A   Clear
11:15 PM 59.0 °F 42.8 °F 55% 30.35 in 10.0 mi Calm Calm - N/A   Clear
11:35 PM 57.2 °F 42.8 °F 59% 30.35 in 10.0 mi Calm Calm - N/A   Clear
11:55 PM 57.2 °F 42.8 °F 59% 30.35 in 10.0 mi Calm Calm - N/A   Clear